Regional Weather Roundup
Issued by NWS

Home | Current Version | Previous Version | Text Only | Print | Product List | Glossary On
Versions: 1 2 3 4 5 6 7 8 9 10 11 12 13 14 15 16 17 18 19 20 21 22 23 24 25 26 27 28 29 30 31 32 33 34 35 36 37 38 39 40 41 42 43 44 45 46 47 48 49 50
000
ASUS43 KLMK 152102
RWRKY
KENTUCKY REGIONAL WEATHER ROUNDUP
NATIONAL WEATHER SERVICE LOUISVILLE KY
500 PM EDT TUE APR 15 2014

NOTE "FAIR" INDICATES FEW OR NO CLOUDS BELOW 12,000 FEET
WITH NO SIGNIFICANT WEATHER AND/OR OBSTRUCTIONS TO VISIBILITY.

KYZ001>023-026-027-061>063-070>075-152200-
WESTERN AND SOUTH CENTRAL KENTUCKY

CITY           SKY/WX    TMP DP  RH WIND       PRES   REMARKS
PADUCAH        MOSUNNY   50  22  33 N10G18    30.19F
HENDERSON      MOSUNNY   43  21  42 N8        30.20S
OWENSBORO      PTSUNNY   43  21  41 NW16G23   30.19S
HOPKINSVILLE   PTSUNNY   45  23  42 NW10      30.17F
BOWLING GREEN  PTSUNNY   46  21  37 NW12G23   30.16R
GLASGOW        NOT AVBL
$$

KYZ024-025-028>034-038-045-046-053-152200-
NORTH CENTRAL KENTUCKY

CITY           SKY/WX    TMP DP  RH WIND       PRES   REMARKS
LOUISVILLE/SDF PTSUNNY   43  20  39 NW12G18   30.14R
LOUISVILLE/LOU PTSUNNY   47  18  31 NW10G18   30.14R
FORT KNOX      PTSUNNY   42  20  41 NW14      30.11S
$$

KYZ035>037-039>044-047>052-055>060-089>105-152200-
NORTHEAST KENTUCKY

CITY           SKY/WX    TMP DP  RH WIND       PRES   REMARKS
LEXINGTON      CLOUDY    41  24  51 N12       30.10R
COVINGTON      CLOUDY    38  20  48 NW15      30.11R WCI  29
FRANKFORT      CLOUDY    40  22  48 NW13G18   30.11R WCI  32
$$

KYZ054-064>069-076>088-106>120-152200-
SOUTHEAST KENTUCKY

CITY           SKY/WX    TMP DP  RH WIND       PRES   REMARKS
JACKSON        PTSUNNY   36  25  64 W9        30.05S WCI  29
LONDON         CLOUDY    39  26  59 N13G22    30.07R WCI  31
SOMERSET       NOT AVBL
MIDDLESBORO    NOT AVBL
MONTICELLO     CLOUDY    40  29  65 N9        30.11R WCI  34
$$




USA.gov is the U.S. government's official web portal to all federal, state and local government web resources and services.